M I D A S
Marine Information and Data Acquisition System
Tripno 1200 of the Zeeleeuw from 2006-12-18 07:49:54 to 2006-12-18 13:37:40
Back to CruiseResearch ActivitiesStationsMapUnderway DataData graphs

EquipmentUnitsComment
TimeDGPSUTC
LatitudeDGPSDM.mWGS84
LongitudeDGPSDM.mWGS84
HeadingGyrodeg 
SOGDGPSknotsSpeed over ground
COGDGPSdegCourse over ground
DepthEcho soundermeters200 kHz
Missing or incorrect values are displayed as -999
Navigation data collected by the RV Zeeleeuw from 2006-12-18 07:00:44 to 2006-12-18 13:42:36
                                                                                    Next 1000 lines
Time Latitude Longitude Heading SOG COG Depth
2006-12-18 07:50:01 51°13.603 2°56.076 113.9 1.7 296 -999
2006-12-18 07:50:07 51°13.604 2°56.072 114.1 1.9 298 -999
2006-12-18 07:50:13 51°13.605 2°56.067 114.1 2.1 297 -999
2006-12-18 07:50:18 51°13.607 2°56.063 113.8 2.2 296 -999
2006-12-18 07:50:23 51°13.608 2°56.058 113.3 2.3 295 -999
2006-12-18 07:50:28 51°13.61 2°56.054 113.1 2.4 294 -999
2006-12-18 07:50:33 51°13.611 2°56.049 113 2.5 293 -999
2006-12-18 07:50:38 51°13.613 2°56.043 113.1 2.7 295 -999
2006-12-18 07:50:43 51°13.614 2°56.037 113.6 2.9 295 -999
2006-12-18 07:50:48 51°13.616 2°56.031 115 3 298 -999
2006-12-18 07:50:54 51°13.619 2°56.024 116.8 3 297 -999
2006-12-18 07:50:58 51°13.62 2°56.02 118.5 3.1 301 -999
2006-12-18 07:51:03 51°13.623 2°56.013 119 3.3 300 -999
2006-12-18 07:51:08 51°13.625 2°56.007 118.5 3.4 301 -999
2006-12-18 07:51:13 51°13.627 2°56 117.1 3.5 298 -999
2006-12-18 07:51:18 51°13.629 2°55.993 115.4 3.6 297 -999
2006-12-18 07:51:23 51°13.632 2°55.985 114 3.8 294 -999
2006-12-18 07:51:28 51°13.634 2°55.977 112.7 4 292 9.6
2006-12-18 07:51:33 51°13.636 2°55.968 111.2 4.2 290 9.7
2006-12-18 07:51:38 51°13.637 2°55.96 109.9 3.9 286 -999
2006-12-18 07:51:43 51°13.638 2°55.953 108.2 3.3 288 -999
2006-12-18 07:51:49 51°13.639 2°55.947 108 2.5 284 -999
2006-12-18 07:51:53 51°13.64 2°55.944 109.2 1.5 285 -999
2006-12-18 07:51:58 51°13.64 2°55.943 111.1 0.8 283 -999
2006-12-18 07:52:03 51°13.64 2°55.941 114.5 0.7 281 10.4
2006-12-18 07:52:08 51°13.641 2°55.939 116.9 0.9 287 10.3
2006-12-18 07:52:13 51°13.641 2°55.936 118.4 1.4 293 10.3
2006-12-18 07:52:17 51°13.642 2°55.934 119.3 1.7 292 10.2
2006-12-18 07:52:22 51°13.643 2°55.93 119.7 2.1 293 10.1
2006-12-18 07:52:27 51°13.644 2°55.925 120.1 2.4 294 10.2
2006-12-18 07:52:32 51°13.646 2°55.92 120.5 2.6 294 10.1
2006-12-18 07:52:38 51°13.648 2°55.913 121.7 2.9 297 -999
2006-12-18 07:52:43 51°13.65 2°55.906 124.7 3.2 299 -999
2006-12-18 07:52:48 51°13.653 2°55.9 127.3 3.5 303 -999
2006-12-18 07:52:54 51°13.656 2°55.892 129.6 3.7 304 -999
2006-12-18 07:52:58 51°13.659 2°55.886 131.3 3.9 306 -999
2006-12-18 07:53:03 51°13.662 2°55.879 132.4 4.1 307 -999
2006-12-18 07:53:08 51°13.666 2°55.872 133 4.2 308 -999
2006-12-18 07:53:13 51°13.669 2°55.864 133.3 4.4 308 -999
2006-12-18 07:53:18 51°13.673 2°55.856 133.3 4.6 309 -999
2006-12-18 07:53:23 51°13.678 2°55.848 133.3 4.9 309 -999
2006-12-18 07:53:28 51°13.682 2°55.839 133.4 5.1 309 -999
2006-12-18 07:53:33 51°13.686 2°55.831 133.5 4.9 310 -999
2006-12-18 07:53:38 51°13.691 2°55.823 134.1 4.8 310 -999
2006-12-18 07:53:43 51°13.695 2°55.815 134.4 4.7 311 -999
2006-12-18 07:53:48 51°13.699 2°55.807 134.8 4.7 311 9.9
2006-12-18 07:53:53 51°13.704 2°55.799 135 4.8 311 -999
2006-12-18 07:53:58 51°13.708 2°55.791 135.4 4.9 312 10.9
2006-12-18 07:54:03 51°13.713 2°55.782 135.6 5 312 -999
2006-12-18 07:54:08 51°13.718 2°55.774 135.8 5.1 312 -999
2006-12-18 07:54:13 51°13.722 2°55.766 135.8 5.1 312 -999
2006-12-18 07:54:18 51°13.727 2°55.757 135.5 5.2 311 -999
2006-12-18 07:54:23 51°13.732 2°55.748 135 5.2 311 -999
2006-12-18 07:54:28 51°13.736 2°55.74 134.4 5 310 -999
2006-12-18 07:54:33 51°13.74 2°55.732 133.9 4.7 310 -999
2006-12-18 07:54:38 51°13.744 2°55.724 133.5 4.3 308 -999
2006-12-18 07:54:43 51°13.747 2°55.718 132.8 3.7 309 -999
2006-12-18 07:54:48 51°13.75 2°55.712 131.7 3.3 308 10.7
2006-12-18 07:54:53 51°13.752 2°55.707 130.8 2.8 305 10
2006-12-18 07:54:58 51°13.755 2°55.703 129.9 2.2 307 10
2006-12-18 07:55:02 51°13.755 2°55.7 127.9 1.6 304 10.1
2006-12-18 07:55:07 51°13.757 2°55.698 125.2 1.2 309 5.6
2006-12-18 07:55:13 51°13.757 2°55.698 122.2 0.5 317 -999
2006-12-18 07:55:18 51°13.758 2°55.698 118.7 0.3 36 -999
2006-12-18 07:55:23 51°13.757 2°55.699 113.5 0.6 83 -999
2006-12-18 07:55:28 51°13.758 2°55.701 108.3 1 85 5.4
2006-12-18 07:55:33 51°13.758 2°55.704 103.7 1.3 90 8.2
2006-12-18 07:55:38 51°13.758 2°55.707 97.9 1.3 80 6.1
2006-12-18 07:55:43 51°13.758 2°55.71 92.3 1.1 84 7
2006-12-18 07:55:47 51°13.758 2°55.711 89.1 0.8 80 9.4
2006-12-18 07:55:53 51°13.758 2°55.712 86.9 0.4 84 9.3
2006-12-18 07:55:58 51°13.758 2°55.712 84.6 0.1 64 9.3
2006-12-18 07:56:02 51°13.758 2°55.712 82.5 0.3 258 9.3
2006-12-18 07:56:07 51°13.758 2°55.71 81 0.7 259 9.2
2006-12-18 07:56:12 51°13.758 2°55.708 80 1.1 259 9.3
2006-12-18 07:56:17 51°13.757 2°55.705 79.3 1.5 256 9.7
2006-12-18 07:56:22 51°13.757 2°55.701 79.1 1.9 258 -999
2006-12-18 07:56:28 51°13.756 2°55.695 78.6 2.3 256 -999
2006-12-18 07:56:33 51°13.755 2°55.69 78 2.3 258 -999
2006-12-18 07:56:38 51°13.755 2°55.685 77.3 2.2 257 -999
2006-12-18 07:56:43 51°13.754 2°55.681 76.9 1.9 261 -999
2006-12-18 07:56:48 51°13.754 2°55.678 76.5 1.3 258 -999
2006-12-18 07:56:53 51°13.754 2°55.676 74.8 0.8 268 -999
2006-12-18 07:56:58 51°13.754 2°55.676 71.8 0.3 288 11.2
2006-12-18 07:57:03 51°13.754 2°55.676 69.7 0.3 2 11.2
2006-12-18 07:57:07 51°13.755 2°55.676 67 0.5 41 11.2
2006-12-18 07:57:13 51°13.755 2°55.678 63.5 0.8 41 10.9
2006-12-18 07:57:17 51°13.756 2°55.679 59.8 1.2 42 11
2006-12-18 07:57:23 51°13.758 2°55.681 55.8 1.6 41 8
2006-12-18 07:57:27 51°13.76 2°55.683 51.3 2 36 5.7
2006-12-18 07:57:33 51°13.763 2°55.686 44.3 2.2 32 -999
2006-12-18 07:57:39 51°13.766 2°55.688 34.8 2.1 24 -999
2006-12-18 07:57:43 51°13.768 2°55.689 29.5 1.5 23 -999
2006-12-18 07:57:49 51°13.769 2°55.69 26.1 0.9 19 10.1
2006-12-18 07:57:53 51°13.769 2°55.69 22 0.2 27 9.9
2006-12-18 07:57:58 51°13.769 2°55.69 18.1 0.5 195 9.8
2006-12-18 07:58:03 51°13.767 2°55.69 13.8 1.2 184 9.9
2006-12-18 07:58:07 51°13.765 2°55.689 11.3 1.6 187 10.1
2006-12-18 07:58:13 51°13.762 2°55.689 8.7 1.5 185 -999
2006-12-18 07:58:18 51°13.761 2°55.689 6 1.2 186 -999
2006-12-18 07:58:23 51°13.76 2°55.688 4.1 0.8 189 -999
2006-12-18 07:58:29 51°13.759 2°55.688 2.4 0.4 204 -999
2006-12-18 07:58:34 51°13.759 2°55.688 359.7 0.2 294 -999
2006-12-18 07:58:38 51°13.76 2°55.687 356.3 0.7 335 -999
2006-12-18 07:58:43 51°13.762 2°55.686 352.9 1.2 342 -999
2006-12-18 07:58:49 51°13.765 2°55.685 349.4 1.8 341 -999
2006-12-18 07:58:54 51°13.768 2°55.683 346 2.3 339 -999
2006-12-18 07:58:58 51°13.771 2°55.68 343.3 2.9 336 -999
2006-12-18 07:59:04 51°13.776 2°55.677 341.8 3.4 337 -999
2006-12-18 07:59:09 51°13.781 2°55.673 340.9 3.9 335 11
2006-12-18 07:59:13 51°13.785 2°55.67 340 4.3 335 10.8
2006-12-18 07:59:18 51°13.791 2°55.665 339.3 4.7 334 10.9
2006-12-18 07:59:23 51°13.797 2°55.661 339 5.1 335 -999
2006-12-18 07:59:28 51°13.804 2°55.656 339.7 5.4 335 -999
2006-12-18 07:59:33 51°13.811 2°55.651 340.4 5.7 337 11
2006-12-18 07:59:38 51°13.819 2°55.645 340.6 6 337 10.8
2006-12-18 07:59:42 51°13.825 2°55.641 340.7 6.2 336 10.7
2006-12-18 07:59:47 51°13.833 2°55.635 340.5 6.5 336 10.7
2006-12-18 07:59:52 51°13.842 2°55.629 340.2 6.7 336 10.8
2006-12-18 07:59:57 51°13.85 2°55.623 340.1 6.9 336 11
2006-12-18 08:00:02 51°13.859 2°55.616 340.3 7 336 11.4
2006-12-18 08:00:07 51°13.868 2°55.609 340.1 7.2 333 10.8
2006-12-18 08:00:12 51°13.877 2°55.602 339.3 7.3 333 10.3
2006-12-18 08:00:17 51°13.887 2°55.594 338.4 7.5 332 10.7
2006-12-18 08:00:22 51°13.896 2°55.586 338.4 7.6 333 10.9
2006-12-18 08:00:27 51°13.905 2°55.579 338.9 7.6 334 10.6
2006-12-18 08:00:32 51°13.915 2°55.572 339 7.7 335 10.8
2006-12-18 08:00:37 51°13.925 2°55.565 339.7 7.7 336 -999
2006-12-18 08:00:43 51°13.937 2°55.556 340.4 7.8 336 -999
2006-12-18 08:00:48 51°13.947 2°55.549 340.5 7.9 336 10.9
2006-12-18 08:00:53 51°13.956 2°55.542 340.4 7.9 336 10.9
2006-12-18 08:00:57 51°13.964 2°55.536 340.3 7.9 335 10.9
2006-12-18 08:01:02 51°13.974 2°55.529 340.3 8 335 10.9
2006-12-18 08:01:07 51°13.985 2°55.522 340.3 8.1 336 10.8
2006-12-18 08:01:12 51°13.995 2°55.514 340.4 8.2 335 10.8
2006-12-18 08:01:17 51°14.005 2°55.506 340.2 8.2 335 10.8
2006-12-18 08:01:22 51°14.015 2°55.499 340 8.2 335 10.9
2006-12-18 08:01:27 51°14.025 2°55.491 340 8.2 335 10.8
2006-12-18 08:01:33 51°14.038 2°55.482 339.9 8.3 335 10.8
2006-12-18 08:01:38 51°14.048 2°55.474 339.8 8.2 335 10.8
2006-12-18 08:01:43 51°14.059 2°55.466 340.3 8.2 335 10.8
2006-12-18 08:01:48 51°14.069 2°55.458 340.4 8.2 334 -999
2006-12-18 08:01:53 51°14.079 2°55.451 340.1 8.1 335 -999
2006-12-18 08:01:58 51°14.089 2°55.443 340.1 8 334 11.4
2006-12-18 08:02:03 51°14.099 2°55.435 340 7.9 334 -999
2006-12-18 08:02:08 51°14.108 2°55.427 339.4 7.8 333 -999
2006-12-18 08:02:13 51°14.118 2°55.42 338.7 7.7 333 -999
2006-12-18 08:02:18 51°14.127 2°55.412 338.5 7.6 332 11
2006-12-18 08:02:23 51°14.136 2°55.404 338 7.5 332 11
2006-12-18 08:02:27 51°14.144 2°55.398 337.3 7.5 331 -999
2006-12-18 08:02:33 51°14.154 2°55.388 336.7 7.4 331 10.9
2006-12-18 08:02:38 51°14.163 2°55.38 336 7.3 330 10.8
2006-12-18 08:02:42 51°14.17 2°55.373 335.4 7.3 329 10.8
2006-12-18 08:02:47 51°14.179 2°55.365 334.5 7.2 328 11.1
2006-12-18 08:02:52 51°14.187 2°55.356 333.5 7.2 326 10.8
2006-12-18 08:02:58 51°14.197 2°55.345 332.1 7.4 325 -999
2006-12-18 08:03:03 51°14.206 2°55.335 330.6 7.7 323 -999
2006-12-18 08:03:08 51°14.214 2°55.323 328.7 8 321 11
2006-12-18 08:03:14 51°14.225 2°55.309 327 8.3 321 11.1
2006-12-18 08:03:17 51°14.23 2°55.302 326.2 8.6 319 11.7
2006-12-18 08:03:23 51°14.241 2°55.286 325 8.9 318 11.2
2006-12-18 08:03:27 51°14.249 2°55.275 323.9 9.3 316 10.9
2006-12-18 08:03:32 51°14.258 2°55.26 322.1 9.5 315 10.7
2006-12-18 08:03:37 51°14.267 2°55.244 321 9.7 314 10.7
2006-12-18 08:03:42 51°14.277 2°55.229 320.1 9.8 313 10.8
2006-12-18 08:03:47 51°14.286 2°55.212 319.3 10.1 312 10.3
2006-12-18 08:03:52 51°14.295 2°55.195 318.7 10.2 311 11.1
2006-12-18 08:03:57 51°14.305 2°55.178 317.8 10.4 310 10.9
2006-12-18 08:04:02 51°14.314 2°55.16 316.4 10.6 310 10.9
2006-12-18 08:04:07 51°14.324 2°55.142 315.7 10.7 310 11.1
2006-12-18 08:04:12 51°14.333 2°55.123 315.4 10.8 309 10.9
2006-12-18 08:04:17 51°14.343 2°55.104 315 11 309 10.6
2006-12-18 08:04:21 51°14.351 2°55.089 314.6 11.2 310 10.5
2006-12-18 08:04:26 51°14.361 2°55.07 315 11.4 311 10.8
2006-12-18 08:04:31 51°14.372 2°55.051 316.4 11.7 313 10.6
2006-12-18 08:04:36 51°14.384 2°55.032 318.4 12 317 11
2006-12-18 08:04:41 51°14.397 2°55.015 321.5 12.2 321 10.7
2006-12-18 08:04:46 51°14.411 2°54.999 325.6 12.3 324 10.7
2006-12-18 08:04:51 51°14.426 2°54.985 330.2 12.4 328 10.7
2006-12-18 08:04:56 51°14.44 2°54.97 333.3 12.5 328 10.8
2006-12-18 08:05:01 51°14.455 2°54.956 334.5 12.6 329 10.6
2006-12-18 08:05:06 51°14.47 2°54.941 334.6 12.7 327 10.3
2006-12-18 08:05:11 51°14.485 2°54.925 333.7 12.8 327 10.1
2006-12-18 08:05:15 51°14.497 2°54.913 333 12.8 326 10.1
2006-12-18 08:05:21 51°14.515 2°54.893 332.3 12.8 326 10.2
2006-12-18 08:05:25 51°14.526 2°54.88 331.5 12.9 324 10
2006-12-18 08:05:30 51°14.541 2°54.863 330.7 13 325 9.8
2006-12-18 08:05:35 51°14.556 2°54.847 330.6 13 325 9.8
2006-12-18 08:05:40 51°14.57 2°54.83 330.9 13.1 325 9.9
2006-12-18 08:05:45 51°14.585 2°54.813 331.6 13.2 325 9.7
2006-12-18 08:05:50 51°14.601 2°54.797 332.2 13.3 326 9.7
2006-12-18 08:05:55 51°14.616 2°54.78 332.2 13.4 325 9.7
2006-12-18 08:06:00 51°14.631 2°54.763 331.8 13.5 325 9.7
2006-12-18 08:06:05 51°14.646 2°54.746 331.5 13.5 324 9.7
2006-12-18 08:06:10 51°14.662 2°54.728 331 13.6 324 9.6
2006-12-18 08:06:14 51°14.674 2°54.714 330.7 13.7 324 9.7
2006-12-18 08:06:19 51°14.69 2°54.697 330.7 13.8 325 9.7
2006-12-18 08:06:24 51°14.705 2°54.679 331 13.8 325 9.7
2006-12-18 08:06:29 51°14.721 2°54.662 331.1 13.8 325 9.7
2006-12-18 08:06:34 51°14.736 2°54.644 331.1 13.8 325 9.7
2006-12-18 08:06:39 51°14.752 2°54.626 331.1 13.9 325 9.7
2006-12-18 08:06:44 51°14.768 2°54.609 330.9 14 325 9.7
2006-12-18 08:06:49 51°14.784 2°54.591 331.1 13.9 325 9.9
2006-12-18 08:06:54 51°14.799 2°54.573 330.9 13.9 324 9.6
2006-12-18 08:06:59 51°14.815 2°54.555 330.9 14 325 9.7
2006-12-18 08:07:04 51°14.831 2°54.537 330.9 13.9 325 9.5
2006-12-18 08:07:09 51°14.847 2°54.52 330.9 13.9 325 9.5
2006-12-18 08:07:14 51°14.863 2°54.502 331 14 325 9.5
2006-12-18 08:07:20 51°14.881 2°54.48 331 13.9 325 9.5
2006-12-18 08:07:24 51°14.894 2°54.466 331 13.9 325 9.9
2006-12-18 08:07:29 51°14.91 2°54.448 331.1 13.9 325 9.7
2006-12-18 08:07:34 51°14.925 2°54.431 331.1 13.9 324 9.4
2006-12-18 08:07:39 51°14.941 2°54.413 331.2 13.8 325 9.3
2006-12-18 08:07:44 51°14.957 2°54.396 331.5 13.8 325 9.2
2006-12-18 08:07:49 51°14.972 2°54.378 331.6 13.6 325 9
2006-12-18 08:07:54 51°14.988 2°54.362 331.9 13.6 326 8.8
2006-12-18 08:07:59 51°15.003 2°54.345 332.1 13.5 326 8.8
2006-12-18 08:08:04 51°15.019 2°54.328 332.6 13.5 326 8.8
2006-12-18 08:08:09 51°15.035 2°54.312 333.2 13.6 327 8.9
2006-12-18 08:08:14 51°15.051 2°54.296 333.7 13.7 328 9
2006-12-18 08:08:19 51°15.067 2°54.28 334.1 13.6 328 9
2006-12-18 08:08:25 51°15.086 2°54.261 334.5 13.6 328 9
2006-12-18 08:08:29 51°15.099 2°54.248 334.5 13.7 328 9
2006-12-18 08:08:34 51°15.115 2°54.231 334.2 13.7 328 9.2
2006-12-18 08:08:39 51°15.131 2°54.215 333.6 13.7 327 9.2
2006-12-18 08:08:44 51°15.147 2°54.198 333.3 13.9 326 9.4
2006-12-18 08:08:49 51°15.163 2°54.181 332.8 13.8 326 9.3
2006-12-18 08:08:54 51°15.178 2°54.163 332.4 13.8 326 9.5
2006-12-18 08:08:59 51°15.194 2°54.146 332.4 13.8 326 9.3
2006-12-18 08:09:04 51°15.21 2°54.129 332.5 13.9 326 9.6
2006-12-18 08:09:09 51°15.226 2°54.112 332.6 13.8 327 9.3
2006-12-18 08:09:14 51°15.243 2°54.096 333.5 13.9 327 9.6
2006-12-18 08:09:19 51°15.259 2°54.079 334.3 13.9 328 9.6
2006-12-18 08:09:25 51°15.278 2°54.06 334.8 13.9 328 9.6
2006-12-18 08:09:29 51°15.291 2°54.047 335.3 13.9 328 9.9
2006-12-18 08:09:34 51°15.308 2°54.03 335.6 13.9 328 9.7
2006-12-18 08:09:39 51°15.324 2°54.015 335.7 13.9 329 10
2006-12-18 08:09:44 51°15.341 2°53.998 335.7 14 328 9.9
2006-12-18 08:09:49 51°15.357 2°53.982 335.5 14 328 10.1
2006-12-18 08:09:54 51°15.373 2°53.965 335 14 327 10.1
2006-12-18 08:09:59 51°15.39 2°53.948 334.8 14 327 10.2
2006-12-18 08:10:04 51°15.406 2°53.931 334.5 13.9 327 10.2
2006-12-18 08:10:09 51°15.422 2°53.915 334.5 13.9 327 10.3
2006-12-18 08:10:14 51°15.438 2°53.898 334.5 14 327 10.5
2006-12-18 08:10:19 51°15.455 2°53.882 334.9 13.9 328 10.6
2006-12-18 08:10:24 51°15.471 2°53.865 335.3 14 328 10.5
2006-12-18 08:10:29 51°15.488 2°53.849 335.3 14 328 10.5
2006-12-18 08:10:34 51°15.504 2°53.832 335.3 13.9 327 10.5
2006-12-18 08:10:39 51°15.52 2°53.815 335.1 14 328 10.6
2006-12-18 08:10:44 51°15.537 2°53.799 335.1 14 327 10.7
2006-12-18 08:10:49 51°15.553 2°53.782 335.1 14 328 10.8
2006-12-18 08:10:54 51°15.569 2°53.765 335 14 328 10.8
2006-12-18 08:10:59 51°15.586 2°53.749 334.8 14 327 10.8
2006-12-18 08:11:04 51°15.602 2°53.732 334.9 13.9 328 10.8
2006-12-18 08:11:09 51°15.618 2°53.716 335.2 14 328 11
2006-12-18 08:11:14 51°15.635 2°53.699 335.3 14 328 11
2006-12-18 08:11:19 51°15.652 2°53.683 335.5 14 328 11
2006-12-18 08:11:24 51°15.668 2°53.667 335.5 14 328 11.1
2006-12-18 08:11:29 51°15.685 2°53.651 335.6 14 328 11.2
2006-12-18 08:11:34 51°15.701 2°53.635 335.6 14 329 11.1
2006-12-18 08:11:39 51°15.718 2°53.619 335.6 13.9 328 11.1
2006-12-18 08:11:44 51°15.734 2°53.603 335.6 14 329 11.3
2006-12-18 08:11:49 51°15.751 2°53.586 335.5 13.9 328 11.5
2006-12-18 08:11:54 51°15.767 2°53.57 335.6 13.8 329 11.2
2006-12-18 08:11:59 51°15.783 2°53.555 335.9 13.8 329 11.4
2006-12-18 08:12:04 51°15.8 2°53.539 336 13.8 329 11.5
2006-12-18 08:12:09 51°15.816 2°53.523 336 13.8 329 11.6
2006-12-18 08:12:14 51°15.832 2°53.507 335.9 13.8 329 11.7
2006-12-18 08:12:19 51°15.849 2°53.491 335.7 13.7 329 11.7
2006-12-18 08:12:24 51°15.865 2°53.476 335.8 13.7 329 11.7
2006-12-18 08:12:29 51°15.881 2°53.46 336 13.7 329 11.6
2006-12-18 08:12:34 51°15.897 2°53.445 335.9 13.6 329 11.9
2006-12-18 08:12:39 51°15.914 2°53.429 335.9 13.7 329 11.8
2006-12-18 08:12:44 51°15.93 2°53.414 336 13.7 329 11.9
2006-12-18 08:12:49 51°15.946 2°53.398 336.1 13.8 330 12.1
2006-12-18 08:12:54 51°15.963 2°53.383 336.4 13.7 330 11.9
2006-12-18 08:12:59 51°15.979 2°53.367 336.4 13.7 329 12
2006-12-18 08:13:05 51°15.999 2°53.349 336.3 13.7 330 12.1
2006-12-18 08:13:09 51°16.012 2°53.337 336.2 13.7 329 12.1
2006-12-18 08:13:14 51°16.028 2°53.321 335.9 13.7 329 12.2
2006-12-18 08:13:19 51°16.044 2°53.305 335.7 13.8 329 12.2
2006-12-18 08:13:24 51°16.061 2°53.29 335.7 13.8 329 12.2
2006-12-18 08:13:29 51°16.077 2°53.274 335.9 13.7 330 12.2
2006-12-18 08:13:34 51°16.094 2°53.259 336.1 13.7 330 12.2
2006-12-18 08:13:39 51°16.11 2°53.244 336.2 13.7 330 12.4
2006-12-18 08:13:44 51°16.126 2°53.229 336.4 13.7 330 12.3
2006-12-18 08:13:49 51°16.143 2°53.214 336.4 13.7 330 12.3
2006-12-18 08:13:54 51°16.16 2°53.198 336.2 13.6 330 12.2
2006-12-18 08:13:59 51°16.176 2°53.183 336.1 13.7 330 12.4
2006-12-18 08:14:04 51°16.192 2°53.168 336.5 13.7 331 12.4
2006-12-18 08:14:09 51°16.209 2°53.154 337 13.8 331 12.4
2006-12-18 08:14:14 51°16.226 2°53.139 337.7 13.7 332 12.3
2006-12-18 08:14:19 51°16.243 2°53.125 338 13.8 332 12.5
2006-12-18 08:14:24 51°16.26 2°53.111 338.3 13.8 332 12.5
2006-12-18 08:14:29 51°16.277 2°53.097 338.4 13.8 333 12.5
2006-12-18 08:14:34 51°16.293 2°53.082 338.5 13.8 332 12.5
2006-12-18 08:14:39 51°16.311 2°53.069 338.5 13.7 333 12.5
2006-12-18 08:14:44 51°16.327 2°53.055 338.7 13.6 332 12.3
2006-12-18 08:14:49 51°16.344 2°53.041 338.6 13.7 332 12.6
2006-12-18 08:14:54 51°16.361 2°53.026 338.3 13.7 332 12.5
2006-12-18 08:14:59 51°16.378 2°53.012 338.3 13.7 333 12.5
2006-12-18 08:15:04 51°16.395 2°52.999 338.9 13.7 333 12.5
2006-12-18 08:15:09 51°16.412 2°52.985 338.9 13.7 333 12.6
2006-12-18 08:15:14 51°16.428 2°52.971 338.7 13.7 333 12.5
2006-12-18 08:15:19 51°16.445 2°52.956 338.4 13.8 332 12.5
2006-12-18 08:15:25 51°16.466 2°52.94 338.2 13.8 332 12.4
2006-12-18 08:15:29 51°16.479 2°52.929 338.4 13.7 333 12.3
2006-12-18 08:15:34 51°16.496 2°52.914 338.5 13.7 332 12.3
2006-12-18 08:15:39 51°16.513 2°52.9 338.4 13.7 332 12.3
2006-12-18 08:15:44 51°16.53 2°52.886 338.6 13.7 332 12.3
2006-12-18 08:15:49 51°16.546 2°52.872 338.5 13.7 332 12.1
2006-12-18 08:15:54 51°16.563 2°52.858 338.5 13.7 332 12.1
2006-12-18 08:15:59 51°16.58 2°52.844 338.2 13.7 332 12
2006-12-18 08:16:04 51°16.597 2°52.83 338.2 13.7 332 11.9
2006-12-18 08:16:09 51°16.614 2°52.815 337.8 13.7 332 12.1
2006-12-18 08:16:14 51°16.63 2°52.801 338 13.7 332 11.9
2006-12-18 08:16:19 51°16.647 2°52.787 338.2 13.7 332 11.7
2006-12-18 08:16:24 51°16.664 2°52.773 338.2 13.7 332 11.9
2006-12-18 08:16:29 51°16.68 2°52.758 338 13.6 331 11.6
2006-12-18 08:16:34 51°16.697 2°52.744 337.7 13.6 331 11.3
2006-12-18 08:16:39 51°16.713 2°52.729 337.7 13.6 332 11.2
2006-12-18 08:16:44 51°16.73 2°52.715 338.2 13.5 332 10.7
2006-12-18 08:16:49 51°16.746 2°52.701 338.4 13.5 331 10.5
2006-12-18 08:16:54 51°16.762 2°52.687 338.3 13.4 331 10.3
2006-12-18 08:16:59 51°16.779 2°52.673 338.1 13.3 332 10.4
2006-12-18 08:17:04 51°16.795 2°52.658 337.8 13.3 332 10.5
2006-12-18 08:17:09 51°16.812 2°52.647 339.8 13.4 337 10.2
2006-12-18 08:17:14 51°16.829 2°52.635 342.7 13.5 337 10.2
2006-12-18 08:17:19 51°16.846 2°52.624 344.3 13.4 340 10.1
2006-12-18 08:17:24 51°16.864 2°52.616 347.1 13.4 342 10.2
2006-12-18 08:17:29 51°16.882 2°52.607 348.6 13.3 344 10.3
2006-12-18 08:17:34 51°16.9 2°52.6 350.5 13.4 346 10.3
2006-12-18 08:17:39 51°16.918 2°52.592 351.6 13.5 346 10.6
2006-12-18 08:17:44 51°16.936 2°52.586 352.9 13.5 348 10.6
2006-12-18 08:17:49 51°16.955 2°52.58 353.9 13.5 348 10.7
2006-12-18 08:17:54 51°16.973 2°52.575 354.9 13.5 350 10.6
2006-12-18 08:17:59 51°16.991 2°52.57 356.3 13.5 351 10.5
2006-12-18 08:18:04 51°17.01 2°52.565 357.4 13.4 351 10.3
2006-12-18 08:18:09 51°17.028 2°52.561 358.1 13.5 352 10.3
2006-12-18 08:18:14 51°17.047 2°52.557 358.8 13.5 353 10.2
2006-12-18 08:18:19 51°17.065 2°52.553 358.9 13.4 352 10.1
2006-12-18 08:18:24 51°17.084 2°52.549 359 13.5 352 10.3
2006-12-18 08:18:29 51°17.102 2°52.545 359.1 13.5 352 10.2
2006-12-18 08:18:34 51°17.121 2°52.541 359.1 13.4 352 10.2
2006-12-18 08:18:39 51°17.139 2°52.537 359 13.5 352 10.4
2006-12-18 08:18:44 51°17.157 2°52.533 358.7 13.4 352 10.4
2006-12-18 08:18:49 51°17.176 2°52.529 358.9 13.5 352 10.3
2006-12-18 08:18:54 51°17.194 2°52.526 359.6 13.4 354 10.4
2006-12-18 08:18:59 51°17.213 2°52.522 0.4 13.5 353 10.7
2006-12-18 08:19:04 51°17.232 2°52.519 0.8 13.4 355 10.5
2006-12-18 08:19:09 51°17.25 2°52.516 1.4 13.6 354 10.7
2006-12-18 08:19:14 51°17.269 2°52.514 1.7 13.5 355 10.7
2006-12-18 08:19:19 51°17.287 2°52.511 1.9 13.5 354 10.6
2006-12-18 08:19:25 51°17.31 2°52.508 1.7 13.6 355 10.9
2006-12-18 08:19:29 51°17.325 2°52.505 1.8 13.5 354 10.7
2006-12-18 08:19:34 51°17.343 2°52.502 1.7 13.5 355 10.8
2006-12-18 08:19:39 51°17.362 2°52.499 1.5 13.6 354 10.9
2006-12-18 08:19:45 51°17.384 2°52.495 1.5 13.5 355 10.9
2006-12-18 08:19:49 51°17.399 2°52.493 1.6 13.5 355 10.9
2006-12-18 08:19:54 51°17.418 2°52.491 2.3 13.5 356 10.7
2006-12-18 08:19:59 51°17.437 2°52.49 3.6 13.4 357 10.9
2006-12-18 08:20:04 51°17.455 2°52.488 4.3 13.4 357 11.1
2006-12-18 08:20:09 51°17.474 2°52.487 4 13.6 358 11.1
2006-12-18 08:20:14 51°17.493 2°52.486 4.8 13.5 358 11.1
2006-12-18 08:20:19 51°17.511 2°52.484 4.5 13.5 358 10.9
2006-12-18 08:20:24 51°17.53 2°52.485 5.6 13.6 1 11.1
2006-12-18 08:20:29 51°17.549 2°52.485 6.8 13.5 -999 11.1
2006-12-18 08:20:34 51°17.567 2°52.485 7.4 13.5 1 10.6
2006-12-18 08:20:39 51°17.586 2°52.486 8.2 13.4 1 11
2006-12-18 08:20:44 51°17.604 2°52.487 8.6 13.4 2 11.1
2006-12-18 08:20:49 51°17.623 2°52.488 8.7 13.5 1 11
2006-12-18 08:20:54 51°17.642 2°52.489 8.4 13.4 2 10.8
2006-12-18 08:20:59 51°17.661 2°52.49 8.5 13.5 2 10.9
2006-12-18 08:21:04 51°17.679 2°52.491 8.6 13.4 2 11.1
2006-12-18 08:21:09 51°17.698 2°52.492 8.7 13.5 2 10.7
2006-12-18 08:21:14 51°17.716 2°52.493 8.7 13.4 2 11
2006-12-18 08:21:19 51°17.735 2°52.494 8.5 13.5 3 11
2006-12-18 08:21:24 51°17.754 2°52.496 9.5 13.5 4 11
2006-12-18 08:21:29 51°17.772 2°52.499 10.9 13.4 5 10.9
2006-12-18 08:21:34 51°17.791 2°52.502 11.9 13.4 6 10.6
2006-12-18 08:21:39 51°17.809 2°52.505 12.6 13.5 7 11
2006-12-18 08:21:45 51°17.832 2°52.51 13.7 13.5 7 11.1
2006-12-18 08:21:49 51°17.846 2°52.513 13.5 13.4 8 10.9
2006-12-18 08:21:54 51°17.865 2°52.517 13.8 13.4 8 10.8
2006-12-18 08:21:59 51°17.883 2°52.521 13.9 13.4 8 11
2006-12-18 08:22:04 51°17.901 2°52.526 14.3 13.5 8 11.2
2006-12-18 08:22:09 51°17.92 2°52.53 14.6 13.5 9 11.1
2006-12-18 08:22:14 51°17.938 2°52.536 15.6 13.5 10 11.1
2006-12-18 08:22:19 51°17.957 2°52.541 15.9 13.4 10 11
2006-12-18 08:22:24 51°17.975 2°52.545 15.9 13.4 10 11.3
2006-12-18 08:22:29 51°17.994 2°52.551 16.2 13.5 11 11.2
2006-12-18 08:22:34 51°18.012 2°52.556 16.4 13.6 10 11.2
2006-12-18 08:22:39 51°18.03 2°52.564 17.9 13.4 15 11.1
2006-12-18 08:22:44 51°18.048 2°52.572 20.4 13.4 16 11.2
2006-12-18 08:22:49 51°18.066 2°52.581 22.5 13.5 18 11.3
2006-12-18 08:22:54 51°18.084 2°52.591 24.1 13.5 19 11.2
2006-12-18 08:22:59 51°18.101 2°52.601 25.4 13.5 20 11.4
2006-12-18 08:23:04 51°18.119 2°52.611 25.9 13.6 21 11.4
2006-12-18 08:23:09 51°18.137 2°52.622 26.3 13.5 22 11.3
2006-12-18 08:23:14 51°18.154 2°52.633 26.8 13.6 23 11.4
2006-12-18 08:23:19 51°18.171 2°52.648 29.9 13.5 28 11.4
2006-12-18 08:23:24 51°18.187 2°52.662 32.6 13.6 29 11.5
2006-12-18 08:23:29 51°18.203 2°52.677 34.7 13.5 31 11.4
2006-12-18 08:23:34 51°18.219 2°52.694 37 13.5 33 11.5
2006-12-18 08:23:39 51°18.234 2°52.712 39.5 13.5 35 11.5
2006-12-18 08:23:44 51°18.249 2°52.73 41.8 13.6 38 11.4
2006-12-18 08:23:49 51°18.264 2°52.749 43.5 13.7 39 11.6
2006-12-18 08:23:54 51°18.278 2°52.769 44.7 13.6 41 11.7
2006-12-18 08:23:59 51°18.292 2°52.788 45.4 13.5 41 11.8
2006-12-18 08:24:05 51°18.309 2°52.812 46.1 13.6 42 11.9
2006-12-18 08:24:09 51°18.32 2°52.828 46.5 13.7 42 11.9
2006-12-18 08:24:14 51°18.334 2°52.849 46.8 13.7 42 11.9
2006-12-18 08:24:19 51°18.348 2°52.869 47.1 13.7 42 11.9
2006-12-18 08:24:24 51°18.362 2°52.889 47.1 13.6 43 11.9
2006-12-18 08:24:29 51°18.376 2°52.909 46.9 13.6 42 12.1
2006-12-18 08:24:34 51°18.39 2°52.93 47.2 13.6 43 11.9
2006-12-18 08:24:39 51°18.404 2°52.95 47.4 13.6 42 11.8
2006-12-18 08:24:44 51°18.418 2°52.97 47.2 13.6 42 11.9
2006-12-18 08:24:49 51°18.432 2°52.99 47.3 13.5 42 12
2006-12-18 08:24:54 51°18.446 2°53.01 47.1 13.5 42 11.8
2006-12-18 08:24:59 51°18.46 2°53.03 47.1 13.6 41 12
2006-12-18 08:25:04 51°18.474 2°53.05 46.4 13.5 41 11.9
2006-12-18 08:25:09 51°18.488 2°53.07 46.3 13.5 42 11.9
2006-12-18 08:25:14 51°18.503 2°53.089 46 13.5 40 12
2006-12-18 08:25:19 51°18.517 2°53.109 46.1 13.6 42 11.9
2006-12-18 08:25:25 51°18.534 2°53.133 46.3 13.7 40 12.1
2006-12-18 08:25:29 51°18.546 2°53.149 45.7 13.6 41 12
2006-12-18 08:25:34 51°18.56 2°53.168 45.7 13.6 41 12.1
2006-12-18 08:25:39 51°18.574 2°53.188 45.8 13.6 41 12.1
2006-12-18 08:25:44 51°18.588 2°53.208 45.7 13.6 41 12.1
2006-12-18 08:25:49 51°18.603 2°53.227 44.8 13.6 40 12.3
2006-12-18 08:25:54 51°18.617 2°53.247 45.3 13.6 41 12.1
2006-12-18 08:25:59 51°18.632 2°53.266 45.6 13.6 40 12.2
2006-12-18 08:26:04 51°18.646 2°53.286 45.3 13.7 41 12.3
2006-12-18 08:26:09 51°18.66 2°53.306 45.7 13.6 40 12.1
2006-12-18 08:26:14 51°18.675 2°53.325 45.4 13.7 41 12.2
2006-12-18 08:26:19 51°18.689 2°53.345 45.6 13.7 40 12.1
2006-12-18 08:26:25 51°18.706 2°53.369 45.3 13.7 41 12.3
2006-12-18 08:26:29 51°18.718 2°53.384 45 13.8 40 12.4
2006-12-18 08:26:34 51°18.732 2°53.404 45 13.7 41 12.3
2006-12-18 08:26:39 51°18.747 2°53.423 45 13.7 39 12.3
2006-12-18 08:26:45 51°18.764 2°53.447 45.3 13.5 41 12
2006-12-18 08:26:49 51°18.776 2°53.462 45.1 13.5 40 12.1
2006-12-18 08:26:54 51°18.79 2°53.482 45.5 13.5 41 12
2006-12-18 08:26:59 51°18.804 2°53.502 45.1 13.6 41 12.5
2006-12-18 08:27:04 51°18.818 2°53.522 45.7 13.7 42 12.3
2006-12-18 08:27:10 51°18.835 2°53.546 45.9 13.7 41 12.4
2006-12-18 08:27:14 51°18.847 2°53.562 45.7 13.7 41 12.5
2006-12-18 08:27:19 51°18.861 2°53.582 45.7 13.7 41 12.4
2006-12-18 08:27:24 51°18.876 2°53.601 45.2 13.7 40 12.4
2006-12-18 08:27:29 51°18.89 2°53.622 45.1 13.6 41 12.4
2006-12-18 08:27:34 51°18.904 2°53.641 44.8 13.7 41 12.3
2006-12-18 08:27:39 51°18.919 2°53.661 45 13.8 40 12.7
2006-12-18 08:27:44 51°18.933 2°53.68 44.7 13.7 41 12.7
2006-12-18 08:27:49 51°18.947 2°53.7 44.9 13.7 41 12.6
2006-12-18 08:27:54 51°18.962 2°53.72 45 13.7 41 12.6
2006-12-18 08:27:59 51°18.976 2°53.74 45.3 13.7 41 12.6
2006-12-18 08:28:04 51°18.991 2°53.759 44.8 13.8 41 12.6
2006-12-18 08:28:09 51°19.005 2°53.779 44.6 13.8 41 12.6
2006-12-18 08:28:14 51°19.02 2°53.799 44.9 13.6 40 12.5
2006-12-18 08:28:19 51°19.034 2°53.819 45.2 13.5 41 12.7
2006-12-18 08:28:24 51°19.048 2°53.839 45.5 13.8 41 12.6
2006-12-18 08:28:29 51°19.063 2°53.858 44.7 13.8 40 12.9
2006-12-18 08:28:34 51°19.077 2°53.878 44.6 13.8 40 12.7
2006-12-18 08:28:39 51°19.092 2°53.898 44.9 13.7 41 12.5
2006-12-18 08:28:44 51°19.106 2°53.917 44.2 13.6 40 12.7
2006-12-18 08:28:49 51°19.12 2°53.937 44.4 13.6 41 12.7
2006-12-18 08:28:54 51°19.135 2°53.957 45 13.6 41 12.7
2006-12-18 08:28:59 51°19.149 2°53.977 45.1 13.7 41 12.7
2006-12-18 08:29:04 51°19.164 2°53.996 45.1 13.8 41 12.6
2006-12-18 08:29:09 51°19.178 2°54.016 44.9 13.8 40 12.9
2006-12-18 08:29:14 51°19.193 2°54.036 44.2 13.6 40 12.8
2006-12-18 08:29:19 51°19.207 2°54.055 44.5 13.6 40 12.9
2006-12-18 08:29:24 51°19.221 2°54.075 44.6 13.7 41 12.6
2006-12-18 08:29:29 51°19.236 2°54.094 44.3 13.7 39 12.8
2006-12-18 08:29:34 51°19.251 2°54.114 44.2 13.8 41 12.7
2006-12-18 08:29:39 51°19.266 2°54.133 44 13.7 39 12.6
2006-12-18 08:29:44 51°19.28 2°54.153 43.9 13.5 41 12.7
2006-12-18 08:29:49 51°19.294 2°54.172 44.4 13.5 41 12.7
2006-12-18 08:29:54 51°19.308 2°54.192 45 13.6 41 12.9
2006-12-18 08:29:59 51°19.323 2°54.212 45.1 13.6 41 12.7
2006-12-18 08:30:05 51°19.34 2°54.236 45 13.8 42 13
2006-12-18 08:30:09 51°19.351 2°54.252 44.7 13.7 41 12.9
2006-12-18 08:30:14 51°19.366 2°54.271 44.8 13.7 41 13
2006-12-18 08:30:19 51°19.38 2°54.291 44.7 13.7 41 13
2006-12-18 08:30:25 51°19.397 2°54.314 44.2 13.6 41 13
2006-12-18 08:30:29 51°19.409 2°54.33 44.5 13.6 40 12.9
2006-12-18 08:30:34 51°19.423 2°54.349 44.4 13.6 40 12.9
2006-12-18 08:30:39 51°19.438 2°54.369 44.2 13.6 40 13.1
2006-12-18 08:30:44 51°19.452 2°54.389 44.5 13.6 40 13.1
2006-12-18 08:30:49 51°19.467 2°54.408 44.2 13.7 40 13.1
2006-12-18 08:30:54 51°19.481 2°54.428 44.2 13.7 40 13.1
2006-12-18 08:30:59 51°19.496 2°54.447 44.4 13.6 41 13.1
2006-12-18 08:31:04 51°19.51 2°54.467 44.7 13.7 41 13.2
2006-12-18 08:31:09 51°19.524 2°54.487 44.5 13.7 40 13.2
2006-12-18 08:31:14 51°19.539 2°54.506 44.3 13.6 41 13.1
2006-12-18 08:31:19 51°19.553 2°54.527 45 13.7 41 13.1
2006-12-18 08:31:24 51°19.567 2°54.547 45.2 13.8 41 13.2
2006-12-18 08:31:29 51°19.581 2°54.567 46.1 13.6 43 13
2006-12-18 08:31:34 51°19.595 2°54.587 46.5 13.6 42 13
2006-12-18 08:31:39 51°19.609 2°54.608 46.6 13.6 44 13.1
2006-12-18 08:31:44 51°19.623 2°54.629 47.1 13.6 43 13.1
2006-12-18 08:31:49 51°19.636 2°54.65 47.7 13.8 44 13.3
2006-12-18 08:31:54 51°19.65 2°54.671 47.4 13.7 43 13.2
2006-12-18 08:31:59 51°19.664 2°54.692 47.5 13.8 44 13.4
2006-12-18 08:32:04 51°19.678 2°54.713 48 13.7 43 13.4
2006-12-18 08:32:10 51°19.694 2°54.739 47.9 13.6 45 13.3
2006-12-18 08:32:14 51°19.705 2°54.755 47.8 13.7 43 13.3
2006-12-18 08:32:19 51°19.719 2°54.776 47.6 13.7 43 13.4
2006-12-18 08:32:24 51°19.733 2°54.797 47.3 13.7 44 13.3
2006-12-18 08:32:29 51°19.746 2°54.818 47.7 13.7 43 13.3
2006-12-18 08:32:34 51°19.761 2°54.839 47.1 13.8 43 13.4
2006-12-18 08:32:39 51°19.774 2°54.86 47.1 13.8 43 13.4
2006-12-18 08:32:45 51°19.791 2°54.885 46.8 13.7 43 13.4
2006-12-18 08:32:49 51°19.803 2°54.901 46.9 13.8 43 13.5
2006-12-18 08:32:54 51°19.816 2°54.922 47 13.7 43 13.4
2006-12-18 08:32:59 51°19.83 2°54.942 47.1 13.7 43 13.2
2006-12-18 08:33:04 51°19.844 2°54.963 47 13.7 43 13.4
2006-12-18 08:33:10 51°19.86 2°54.989 46.8 13.8 45 13.5
2006-12-18 08:33:14 51°19.872 2°55.005 47.7 13.8 43 13.3
2006-12-18 08:33:19 51°19.886 2°55.026 47.3 13.8 44 13.6
2006-12-18 08:33:25 51°19.902 2°55.052 47.4 13.8 43 13.5
2006-12-18 08:33:29 51°19.913 2°55.068 47.6 13.8 44 13.6
2006-12-18 08:33:34 51°19.927 2°55.089 47.5 13.7 44 13.6
2006-12-18 08:33:39 51°19.941 2°55.11 47.1 13.8 43 13.6
2006-12-18 08:33:44 51°19.955 2°55.131 46.9 13.7 43 13.6
2006-12-18 08:33:49 51°19.969 2°55.152 46.9 13.7 43 13.4
2006-12-18 08:33:54 51°19.983 2°55.172 46.7 13.7 43 13.5
2006-12-18 08:33:59 51°19.997 2°55.193 46.6 13.7 43 13.5
2006-12-18 08:34:04 51°20.01 2°55.214 47.1 13.7 44 13.6
2006-12-18 08:34:09 51°20.024 2°55.235 47.3 13.7 44 13.7
2006-12-18 08:34:14 51°20.038 2°55.256 47.2 13.7 44 13.6
2006-12-18 08:34:19 51°20.052 2°55.277 47.4 13.8 44 13.8
2006-12-18 08:34:24 51°20.065 2°55.298 47.4 13.7 44 13.6
2006-12-18 08:34:29 51°20.079 2°55.319 47.4 13.8 45 13.6
2006-12-18 08:34:34 51°20.093 2°55.34 47.1 13.8 43 13.8
2006-12-18 08:34:39 51°20.107 2°55.362 47 13.9 45 13.7
2006-12-18 08:34:44 51°20.121 2°55.383 47.9 13.8 43 13.7
2006-12-18 08:34:49 51°20.134 2°55.404 47.1 13.7 45 13.7
2006-12-18 08:34:54 51°20.148 2°55.425 47.4 13.7 44 13.6
2006-12-18 08:34:59 51°20.162 2°55.446 47.4 13.7 44 13.7
2006-12-18 08:35:05 51°20.179 2°55.471 47.1 13.7 42 13.7
2006-12-18 08:35:09 51°20.19 2°55.488 47 13.8 44 13.7
2006-12-18 08:35:14 51°20.204 2°55.508 47.1 13.8 43 13.6
2006-12-18 08:35:19 51°20.217 2°55.53 47.1 13.8 44 13.7
2006-12-18 08:35:24 51°20.231 2°55.551 47.1 13.8 43 13.8
2006-12-18 08:35:29 51°20.245 2°55.572 47.1 13.8 43 13.7
2006-12-18 08:35:34 51°20.259 2°55.592 47 13.8 43 13.4
2006-12-18 08:35:39 51°20.273 2°55.613 47.1 13.6 43 13.5
2006-12-18 08:35:44 51°20.287 2°55.634 47 13.6 43 13.7
2006-12-18 08:35:49 51°20.301 2°55.655 47 13.7 43 13.7
2006-12-18 08:35:54 51°20.314 2°55.676 47.3 13.7 43 13.6
2006-12-18 08:35:59 51°20.328 2°55.697 47.7 13.7 44 13.8
2006-12-18 08:36:04 51°20.341 2°55.718 47.4 13.7 44 13.8
2006-12-18 08:36:09 51°20.355 2°55.739 47.7 13.7 44 13.8
2006-12-18 08:36:14 51°20.369 2°55.76 47.9 13.7 45 13.7
2006-12-18 08:36:19 51°20.382 2°55.782 48.5 13.8 45 13.9
2006-12-18 08:36:24 51°20.396 2°55.803 48 13.7 43 13.8
2006-12-18 08:36:29 51°20.409 2°55.824 47.6 13.6 44 13.6
2006-12-18 08:36:34 51°20.423 2°55.845 47.8 13.7 44 13.8
2006-12-18 08:36:39 51°20.437 2°55.865 47.2 13.7 43 14
2006-12-18 08:36:44 51°20.45 2°55.887 47 13.6 45 13.8
2006-12-18 08:36:49 51°20.464 2°55.908 48 13.7 44 13.9
2006-12-18 08:36:54 51°20.477 2°55.929 47.6 13.7 44 13.9
2006-12-18 08:36:59 51°20.491 2°55.95 47.6 13.7 44 13.8
2006-12-18 08:37:04 51°20.505 2°55.971 47.5 13.7 44 13.8
2006-12-18 08:37:09 51°20.518 2°55.992 47.5 13.7 45 13.9
2006-12-18 08:37:14 51°20.532 2°56.013 47.7 13.8 44 14
2006-12-18 08:37:19 51°20.546 2°56.035 47.3 13.8 44 13.9
2006-12-18 08:37:25 51°20.562 2°56.06 47.3 13.9 44 14
2006-12-18 08:37:29 51°20.574 2°56.077 47.3 13.9 43 13.9
2006-12-18 08:37:34 51°20.587 2°56.098 47.3 13.9 44 13.9
2006-12-18 08:37:39 51°20.601 2°56.12 47.2 13.8 44 13.9
2006-12-18 08:37:45 51°20.617 2°56.145 47.3 13.8 44 14
2006-12-18 08:37:49 51°20.628 2°56.162 47.3 13.8 45 14.1
2006-12-18 08:37:54 51°20.642 2°56.184 47.7 13.8 44 13.9
2006-12-18 08:37:59 51°20.656 2°56.205 47.6 13.8 44 14.1
2006-12-18 08:38:04 51°20.67 2°56.226 47.3 13.8 44 14
2006-12-18 08:38:09 51°20.684 2°56.247 47.1 13.8 45 14
2006-12-18 08:38:14 51°20.697 2°56.268 47.8 13.7 44 14
2006-12-18 08:38:20 51°20.714 2°56.294 47.6 13.8 44 14
2006-12-18 08:38:24 51°20.725 2°56.311 47.8 13.8 45 14.1
2006-12-18 08:38:29 51°20.738 2°56.332 47.8 13.8 44 14.2
2006-12-18 08:38:34 51°20.752 2°56.354 47.9 13.8 45 13.9
2006-12-18 08:38:39 51°20.766 2°56.375 47.9 13.8 44 14.1
2006-12-18 08:38:44 51°20.779 2°56.397 47.9 13.8 45 14.2
2006-12-18 08:38:49 51°20.793 2°56.418 47.9 13.7 44 14
2006-12-18 08:38:54 51°20.807 2°56.439 47.8 13.7 44 13.9
2006-12-18 08:38:59 51°20.82 2°56.46 47.1 13.7 44 13.9
2006-12-18 08:39:04 51°20.834 2°56.481 47.1 13.8 43 14.1
2006-12-18 08:39:09 51°20.848 2°56.502 47.3 13.8 44 14.1
2006-12-18 08:39:14 51°20.862 2°56.523 47.2 13.7 44 14.1
2006-12-18 08:39:19 51°20.875 2°56.544 47.7 13.7 44 14
2006-12-18 08:39:24 51°20.888 2°56.566 48.1 13.7 45 14.1
2006-12-18 08:39:29 51°20.902 2°56.587 48 13.8 44 14
2006-12-18 08:39:34 51°20.916 2°56.608 47.9 13.8 45 14.2
2006-12-18 08:39:39 51°20.93 2°56.629 47.2 13.8 43 14.2
2006-12-18 08:39:44 51°20.943 2°56.651 47.1 13.8 45 14.4
2006-12-18 08:39:49 51°20.957 2°56.672 47.1 13.7 44 14.2
2006-12-18 08:39:54 51°20.97 2°56.694 47.9 13.8 47 14.1
2006-12-18 08:39:59 51°20.983 2°56.716 49.8 13.7 48 14.2
2006-12-18 08:40:05 51°20.997 2°56.745 52.2 13.7 51 14.3
2006-12-18 08:40:09 51°21.007 2°56.764 54.5 13.7 53 14.2
2006-12-18 08:40:14 51°21.018 2°56.789 56.3 13.8 54 14.1
2006-12-18 08:40:19 51°21.029 2°56.814 57.3 13.8 55 14.3
2006-12-18 08:40:24 51°21.04 2°56.84 58.7 13.8 56 14.1
2006-12-18 08:40:29 51°21.05 2°56.865 59.5 13.8 57 14
2006-12-18 08:40:34 51°21.06 2°56.891 60 13.8 58 14.1
2006-12-18 08:40:39 51°21.071 2°56.917 60.8 13.9 58 14.1
2006-12-18 08:40:44 51°21.081 2°56.943 60.5 13.8 58 14.1
2006-12-18 08:40:49 51°21.091 2°56.969 60.7 13.9 57 14.3
2006-12-18 08:40:54 51°21.102 2°56.995 60.5 14 58 14.3
2006-12-18 08:40:59 51°21.112 2°57.021 60.1 13.9 57 14.3
2006-12-18 08:41:04 51°21.123 2°57.047 60.2 13.9 57 14.2
2006-12-18 08:41:09 51°21.133 2°57.073 60 13.8 57 14.2
2006-12-18 08:41:14 51°21.143 2°57.098 60.2 13.9 57 14.2
2006-12-18 08:41:19 51°21.154 2°57.124 60.2 14 57 14.3
2006-12-18 08:41:24 51°21.165 2°57.15 59.6 13.9 57 14.3
2006-12-18 08:41:29 51°21.175 2°57.176 60 13.9 57 14.4
2006-12-18 08:41:34 51°21.186 2°57.201 59.8 13.9 56 14.3
2006-12-18 08:41:39 51°21.196 2°57.227 59.8 13.9 57 14.2
2006-12-18 08:41:44 51°21.207 2°57.253 60 14 57 14.2
2006-12-18 08:41:49 51°21.217 2°57.279 59.9 14 57 14.3
2006-12-18 08:41:54 51°21.228 2°57.305 59.6 13.9 56 14.1
2006-12-18 08:41:59 51°21.238 2°57.331 60 13.9 57 14.2
2006-12-18 08:42:04 51°21.249 2°57.357 59.7 14 57 14.3
2006-12-18 08:42:09 51°21.26 2°57.382 59.9 13.9 57 14.1
2006-12-18 08:42:14 51°21.27 2°57.408 59.9 13.9 58 14.2
2006-12-18 08:42:19 51°21.281 2°57.434 60 13.9 56 14.1
2006-12-18 08:42:26 51°21.296 2°57.47 60.2 14 57 14.2
2006-12-18 08:42:29 51°21.302 2°57.486 59.5 14.1 56 14.4
2006-12-18 08:42:34 51°21.312 2°57.512 59.2 14 56 14.2
2006-12-18 08:42:39 51°21.323 2°57.538 59.5 13.9 57 14.1
2006-12-18 08:42:44 51°21.334 2°57.563 59.1 14.1 56 14
2006-12-18 08:42:49 51°21.345 2°57.589 58.9 14 57 14.2
2006-12-18 08:42:54 51°21.355 2°57.615 59.7 14.1 57 14.2
2006-12-18 08:42:59 51°21.366 2°57.641 59.6 14 56 14.3
2006-12-18 08:43:04 51°21.376 2°57.667 59.5 14 56 14.4
2006-12-18 08:43:10 51°21.39 2°57.698 58.8 14 56 14.1
2006-12-18 08:43:14 51°21.398 2°57.718 58.6 14 56 14.1
2006-12-18 08:43:19 51°21.409 2°57.744 58.4 14 55 14.1
2006-12-18 08:43:24 51°21.42 2°57.77 58.6 14 56 14.3
2006-12-18 08:43:29 51°21.431 2°57.795 58.2 14 56 14.4
2006-12-18 08:43:34 51°21.442 2°57.821 58.4 14 55 14.1
2006-12-18 08:43:39 51°21.453 2°57.846 58 13.9 54 14.1
2006-12-18 08:43:44 51°21.465 2°57.87 56.9 13.8 54 14.1
2006-12-18 08:43:49 51°21.477 2°57.895 56.5 13.8 52 14.1
2006-12-18 08:43:54 51°21.488 2°57.918 55.2 13.1 52 14.1
2006-12-18 08:43:59 51°21.498 2°57.94 55.2 12.2 52 14
2006-12-18 08:44:04 51°21.508 2°57.961 55.7 11.7 53 14
2006-12-18 08:44:09 51°21.518 2°57.98 55.7 10.9 52 14
2006-12-18 08:44:14 51°21.527 2°57.999 55.6 10.4 52 14.3
2006-12-18 08:44:19 51°21.535 2°58.016 55.5 9.9 53 14.3
2006-12-18 08:44:24 51°21.543 2°58.033 55.2 9.5 53 14.2
2006-12-18 08:44:30 51°21.552 2°58.052 54.4 9.1 51 14.2
2006-12-18 08:44:34 51°21.558 2°58.065 54.1 8.9 52 14.2
2006-12-18 08:44:39 51°21.566 2°58.08 53.5 8.4 51 14.4
2006-12-18 08:44:45 51°21.575 2°58.096 52.1 8.2 49 14.4
2006-12-18 08:44:49 51°21.581 2°58.107 50.3 8 47 14.2
2006-12-18 08:44:54 51°21.588 2°58.119 48.5 7.8 46 14.3
2006-12-18 08:44:59 51°21.595 2°58.131 47.2 7.5 45 14.2
2006-12-18 08:45:04 51°21.603 2°58.141 45 7.1 42 14.2
2006-12-18 08:45:09 51°21.61 2°58.151 42.9 6.7 40 14.3
2006-12-18 08:45:14 51°21.617 2°58.16 40.5 6.3 37 14.5
2006-12-18 08:45:19 51°21.623 2°58.168 37.3 6 37 14.5
2006-12-18 08:45:24 51°21.63 2°58.174 34.4 5.6 32 14.3
2006-12-18 08:45:29 51°21.636 2°58.181 31.9 5.3 31 14.4
2006-12-18 08:45:34 51°21.642 2°58.185 28.8 4.8 28 14.6
2006-12-18 08:45:39 51°21.648 2°58.19 25.7 4.4 26 14.5
2006-12-18 08:45:44 51°21.653 2°58.194 23.2 4 22 14.5
2006-12-18 08:45:49 51°21.658 2°58.197 20.8 3.6 23 14.6
2006-12-18 08:45:54 51°21.662 2°58.199 18.8 3.2 21 14.4
2006-12-18 08:45:59 51°21.666 2°58.202 17.9 2.8 23 14.5
2006-12-18 08:46:04 51°21.669 2°58.204 18.9 2.3 26 14.4
2006-12-18 08:46:09 51°21.671 2°58.206 20.5 1.8 29 14.5
2006-12-18 08:46:14 51°21.673 2°58.207 21.6 1.5 27 14.5
2006-12-18 08:46:19 51°21.674 2°58.209 22.8 1.1 33 14.5
2006-12-18 08:46:24 51°21.675 2°58.21 25 0.7 51 14.4
2006-12-18 08:46:29 51°21.675 2°58.211 26.9 0.4 45 14.4
2006-12-18 08:46:35 51°21.675 2°58.212 27.9 0.5 70 14.5
2006-12-18 08:46:39 51°21.676 2°58.212 29 0.5 51 14.5
2006-12-18 08:46:44 51°21.676 2°58.214 29.7 0.5 60 14.5
2006-12-18 08:46:49 51°21.676 2°58.214 30 0.5 65 14.5
2006-12-18 08:46:54 51°21.677 2°58.215 30.3 0.4 44 14.5
2006-12-18 08:46:59 51°21.677 2°58.217 30.9 0.6 62 14.5
2006-12-18 08:47:04 51°21.678 2°58.218 31.7 0.5 58 14.5
2006-12-18 08:47:09 51°21.678 2°58.219 32.2 0.6 71 14.6
2006-12-18 08:47:14 51°21.678 2°58.219 32.8 0.6 70 14.6
2006-12-18 08:47:19 51°21.678 2°58.221 32.8 0.4 60 14.5
2006-12-18 08:47:24 51°21.679 2°58.222 33.8 0.5 67 14.5
2006-12-18 08:47:29 51°21.679 2°58.223 34.8 0.5 71 14.4
2006-12-18 08:47:34 51°21.679 2°58.224 35.9 0.6 71 14.4
2006-12-18 08:47:39 51°21.68 2°58.225 36.9 0.6 64 14.5
2006-12-18 08:47:44 51°21.68 2°58.226 37.7 0.6 67 14.5
2006-12-18 08:47:49 51°21.68 2°58.227 38.4 0.6 63 14.5
2006-12-18 08:47:54 51°21.68 2°58.229 39.4 0.6 82 14.5
2006-12-18 08:47:59 51°21.681 2°58.23 39.9 0.4 51 14.4
2006-12-18 08:48:04 51°21.68 2°58.231 41 0.8 90 14.6
2006-12-18 08:48:09 51°21.681 2°58.232 42 0.5 61 14.5
2006-12-18 08:48:14 51°21.681 2°58.234 42.5 0.8 83 14.5
2006-12-18 08:48:19 51°21.681 2°58.235 43.1 0.9 68 14.4
2006-12-18 08:48:24 51°21.682 2°58.237 43.1 0.9 52 14.5
2006-12-18 08:48:29 51°21.683 2°58.239 42.7 1 62 14.5
2006-12-18 08:48:34 51°21.683 2°58.24 42.2 0.9 57 14.5
2006-12-18 08:48:40 51°21.684 2°58.242 41.6 0.9 62 14.4
2006-12-18 08:48:45 51°21.685 2°58.244 41.1 0.9 59 14.4
2006-12-18 08:48:49 51°21.685 2°58.245 41.1 0.9 63 14.3
2006-12-18 08:48:54 51°21.686 2°58.247 40.6 0.8 53 14.4
2006-12-18 08:48:59 51°21.687 2°58.249 40.4 0.9 68 14.6
2006-12-18 08:49:04 51°21.687 2°58.251 40.4 0.9 57 14.6
2006-12-18 08:49:09 51°21.688 2°58.252 40 0.9 63 14.4
2006-12-18 08:49:14 51°21.688 2°58.254 40 0.9 59 14.4
2006-12-18 08:49:19 51°21.689 2°58.255 39.9 0.9 60 14.3
2006-12-18 08:49:25 51°21.69 2°58.257 39.7 0.8 59 14.5
2006-12-18 08:49:29 51°21.69 2°58.259 39.9 0.9 68 14.6
2006-12-18 08:49:34 51°21.691 2°58.26 39.9 0.8 57 14.5
2006-12-18 08:49:39 51°21.691 2°58.262 39.7 0.8 64 14.6
2006-12-18 08:49:44 51°21.692 2°58.264 39.8 0.9 65 14.6
2006-12-18 08:49:49 51°21.692 2°58.265 39.8 0.9 63 14.7
2006-12-18 08:49:54 51°21.693 2°58.267 39.6 0.8 65 14.6
2006-12-18 08:49:59 51°21.693 2°58.268 39.5 0.7 67 14.5
2006-12-18 08:50:04 51°21.694 2°58.27 39.4 0.8 64 14.4
2006-12-18 08:50:10 51°21.694 2°58.272 39.4 0.7 60 14.4
2006-12-18 08:50:14 51°21.695 2°58.273 39.5 0.9 72 14.5
2006-12-18 08:50:19 51°21.695 2°58.274 39.5 0.7 61 14.6
2006-12-18 08:50:24 51°21.695 2°58.276 39.4 0.8 73 14.6
2006-12-18 08:50:29 51°21.696 2°58.277 39.6 0.7 67 14.4
2006-12-18 08:50:34 51°21.696 2°58.279 39.8 0.7 69 14.4
2006-12-18 08:50:40 51°21.697 2°58.281 40 0.7 65 14.4
2006-12-18 08:50:44 51°21.697 2°58.282 40.4 0.7 67 14.4
2006-12-18 08:50:49 51°21.697 2°58.284 40.7 0.8 64 14.5
2006-12-18 08:50:54 51°21.698 2°58.285 40.6 0.8 74 14.6
2006-12-18 08:51:00 51°21.699 2°58.287 40.6 0.7 62 14.5
2006-12-18 08:51:05 51°21.699 2°58.289 40.7 0.8 67 14.6
2006-12-18 08:51:09 51°21.699 2°58.29 41.1 0.8 63 14.6
2006-12-18 08:51:14 51°21.699 2°58.292 41.3 0.8 75 14.7
2006-12-18 08:51:19 51°21.7 2°58.293 41.1 0.7 66 14.7
2006-12-18 08:51:24 51°21.7 2°58.295 41.3 0.8 73 14.8
2006-12-18 08:51:29 51°21.7 2°58.296 41.8 0.7 62 14.7
2006-12-18 08:51:34 51°21.701 2°58.298 42 0.8 78 14.7
2006-12-18 08:51:39 51°21.701 2°58.299 42.3 0.6 53 14.6
2006-12-18 08:51:45 51°21.702 2°58.301 42.5 0.6 64 14.5
2006-12-18 08:51:49 51°21.702 2°58.302 43 0.8 79 14.5
2006-12-18 08:51:54 51°21.702 2°58.304 43.4 0.7 61 14.4
2006-12-18 08:51:59 51°21.703 2°58.305 43.1 0.9 56 14.4
2006-12-18 08:52:04 51°21.704 2°58.308 42.4 1.1 53 14.5
2006-12-18 08:52:09 51°21.705 2°58.31 39.9 1.4 55 14.6
2006-12-18 08:52:14 51°21.706 2°58.312 36.6 1.4 42 14.5
2006-12-18 08:52:19 51°21.708 2°58.315 33.3 1.6 40 14.7
2006-12-18 08:52:24 51°21.71 2°58.317 29.1 1.7 31 14.6
2006-12-18 08:52:29 51°21.713 2°58.319 24.6 2 27 14.5
2006-12-18 08:52:34 51°21.715 2°58.32 19.8 2.1 24 14.7
2006-12-18 08:52:39 51°21.718 2°58.322 14.1 2.1 13 14.6
2006-12-18 08:52:44 51°21.721 2°58.323 8.4 2.3 8 14.6
2006-12-18 08:52:49 51°21.725 2°58.323 2.6 2.4 -999 14.6
2006-12-18 08:52:54 51°21.728 2°58.322 355.5 2.5 355 14.6
2006-12-18 08:52:59 51°21.732 2°58.321 350.6 2.6 346 14.6
2006-12-18 08:53:04 51°21.735 2°58.319 344.7 2.6 341 14.6
2006-12-18 08:53:09 51°21.738 2°58.316 338.5 2.6 334 14.4
2006-12-18 08:53:14 51°21.741 2°58.313 332.1 2.7 327 14.5
2006-12-18 08:53:20 51°21.745 2°58.308 325.9 2.8 319 14.6
2006-12-18 08:53:26 51°21.748 2°58.303 319.8 2.8 310 14.7
2006-12-18 08:53:30 51°21.749 2°58.299 313.8 2.8 306 14.5
2006-12-18 08:53:34 51°21.751 2°58.295 307.8 2.8 300 14.6
2006-12-18 08:53:39 51°21.752 2°58.289 301.7 2.8 293 14.6
2006-12-18 08:53:44 51°21.753 2°58.282 294.6 2.9 286 14.7
2006-12-18 08:53:49 51°21.754 2°58.276 289.8 3 278 14.9
2006-12-18 08:53:54 51°21.755 2°58.269 284.2 3 275 14.7
2006-12-18 08:53:59 51°21.754 2°58.262 278.5 3.1 267 14.7
2006-12-18 08:54:04 51°21.754 2°58.255 272.5 3.2 263 14.7
2006-12-18 08:54:09 51°21.753 2°58.248 266.6 3.2 256 14.8
2006-12-18 08:54:14 51°21.751 2°58.242 260.8 3.1 248 14.9
2006-12-18 08:54:19 51°21.75 2°58.236 255.6 3.1 246 14.9
2006-12-18 08:54:24 51°21.747 2°58.23 250.8 3.1 242 14.8
2006-12-18 08:54:29 51°21.745 2°58.224 245 3.1 235 14.8
2006-12-18 08:54:34 51°21.742 2°58.219 242.4 3.1 233 14.8
2006-12-18 08:54:39 51°21.739 2°58.213 239.5 3.2 231 14.8
2006-12-18 08:54:44 51°21.736 2°58.207 237.6 3.3 229 14.8
2006-12-18 08:54:49 51°21.733 2°58.202 236 3.3 230 14.8
2006-12-18 08:54:54 51°21.73 2°58.196 235.1 3.4 226 14.8
2006-12-18 08:54:59 51°21.727 2°58.191 233.7 3.3 226 14.8
2006-12-18 08:55:04 51°21.723 2°58.186 232.6 3.2 226 14.7
2006-12-18 08:55:09 51°21.72 2°58.182 232.2 3.1 222 14.9
2006-12-18 08:55:14 51°21.717 2°58.177 231 3 221 14.7
2006-12-18 08:55:20 51°21.713 2°58.172 230.5 2.9 219 14.8
2006-12-18 08:55:24 51°21.711 2°58.169 229.5 2.8 225 14.8
2006-12-18 08:55:29 51°21.708 2°58.165 228.9 2.8 215 14.8
2006-12-18 08:55:34 51°21.705 2°58.161 228.2 2.7 220 14.7
2006-12-18 08:55:40 51°21.701 2°58.157 227.2 2.6 216 14.6
2006-12-18 08:55:45 51°21.699 2°58.153 226.3 2.5 220 14.8
2006-12-18 08:55:49 51°21.697 2°58.151 226 2.4 214 14.7
2006-12-18 08:55:54 51°21.694 2°58.148 225.7 2.2 219 14.8
2006-12-18 08:55:59 51°21.692 2°58.146 225.7 1.9 213 14.8
2006-12-18 08:56:05 51°21.69 2°58.143 227.1 1.6 211 14.8
2006-12-18 08:56:10 51°21.688 2°58.142 228.6 1.4 216 14.9
2006-12-18 08:56:14 51°21.687 2°58.141 230.3 1.2 207 14.8
2006-12-18 08:56:19 51°21.686 2°58.14 232.5 0.9 204 14.7
2006-12-18 08:56:26 51°21.685 2°58.139 234.4 0.6 196 14.7
2006-12-18 08:56:29 51°21.684 2°58.139 236.3 0.5 165 14.8
2006-12-18 08:56:34 51°21.684 2°58.14 238.2 0.3 155 14.6
2006-12-18 08:56:39 51°21.683 2°58.14 239.5 0.3 155 14.6
2006-12-18 08:56:44 51°21.683 2°58.14 240.2 0.4 150 14.7
2006-12-18 08:56:51 51°21.682 2°58.141 240.4 0.3 150 14.8
2006-12-18 08:56:54 51°21.682 2°58.141 240.6 0.4 146 14.8
2006-12-18 08:57:00 51°21.681 2°58.142 240.2 0.4 147 14.8
2006-12-18 08:57:04 51°21.681 2°58.142 240 0.4 150 14.8
2006-12-18 08:57:09 51°21.68 2°58.143 240.1 0.3 148 14.8
2006-12-18 08:57:14 51°21.68 2°58.143 240.2 0.3 147 14.8
2006-12-18 08:57:19 51°21.679 2°58.144 240.4 0.4 146 14.7
2006-12-18 08:57:24 51°21.679 2°58.144 240.5 0.3 150 14.8
2006-12-18 08:57:29 51°21.679 2°58.145 240.9 0.3 151 14.8
2006-12-18 08:57:34 51°21.678 2°58.145 241.6 0.3 147 14.9
2006-12-18 08:57:39 51°21.678 2°58.145 242.2 0.4 149 14.8
2006-12-18 08:57:44 51°21.678 2°58.146 242.7 0.2 171 14.8
2006-12-18 08:57:49 51°21.677 2°58.146 243.3 0.3 150 14.9
2006-12-18 08:57:54 51°21.677 2°58.146 244.2 0.3 146 14.8
2006-12-18 08:58:00 51°21.676 2°58.147 245 0.4 145 14.8
2006-12-18 08:58:05 51°21.676 2°58.147 245.3 0.2 138 14.8
2006-12-18 08:58:09 51°21.676 2°58.148 246.1 0.3 147 14.9
2006-12-18 08:58:14 51°21.675 2°58.148 247.2 0.3 146 14.8
2006-12-18 08:58:19 51°21.675 2°58.148 248 0.3 147 14.7
2006-12-18 08:58:25 51°21.674 2°58.149 248.6 0.3 151 14.7
2006-12-18 08:58:30 51°21.674 2°58.149 249.5 0.4 146 14.8
2006-12-18 08:58:34 51°21.674 2°58.149 250.4 0.2 135 14.8
2006-12-18 08:58:39 51°21.673 2°58.15 251.1 0.2 140 14.8
2006-12-18 08:58:44 51°21.673 2°58.15 251.8 0.3 148 14.8
2006-12-18 08:58:49 51°21.673 2°58.15 252.4 0.1 131 14.8
2006-12-18 08:58:55 51°21.672 2°58.151 253.3 0.4 146 14.7
2006-12-18 08:58:59 51°21.672 2°58.151 254.5 0.2 126 14.7
2006-12-18 08:59:04 51°21.672 2°58.151 255.2 0.3 141 14.9
2006-12-18 08:59:09 51°21.671 2°58.152 256.2 0.4 148 14.9
2006-12-18 08:59:14 51°21.671 2°58.152 256.9 0.1 121 14.9
2006-12-18 08:59:20 51°21.671 2°58.152 258.1 0.2 118 14.7
2006-12-18 08:59:24 51°21.671 2°58.153 258.7 0.3 136 14.9
2006-12-18 08:59:29 51°21.671 2°58.153 260 0.2 131 14.8
2006-12-18 08:59:34 51°21.67 2°58.154 260.5 0.2 139 14.9
2006-12-18 08:59:40 51°21.67 2°58.154 261.5 0.4 155 15
2006-12-18 08:59:45 51°21.67 2°58.154 262.5 0.1 101 14.8
2006-12-18 08:59:49 51°21.669 2°58.155 263.3 0.2 130 14.9
2006-12-18 08:59:54 51°21.669 2°58.155 264.1 0.3 127 14.8
2006-12-18 08:59:59 51°21.669 2°58.155 264.8 0.2 83 14.9
2006-12-18 09:00:04 51°21.669 2°58.156 265.8 0.3 139 14.9
2006-12-18 09:00:10 51°21.669 2°58.156 266.3 0.3 129 14.8
2006-12-18 09:00:14 51°21.669 2°58.157 267.2 0.2 121 14.8
2006-12-18 09:00:19 51°21.669 2°58.157 267.7 0.2 116 14.7
2006-12-18 09:00:24 51°21.669 2°58.157 268.4 0.2 46 14.8
2006-12-18 09:00:29 51°21.669 2°58.158 268.8 0.3 150 14.8
2006-12-18 09:00:34 51°21.669 2°58.158 269.7 0.1 57 14.8
2006-12-18 09:00:39 51°21.669 2°58.158 270.7 0.3 136 14.7
2006-12-18 09:00:45 51°21.669 2°58.159 271.2 0.3 38 14.7
2006-12-18 09:00:50 51°21.668 2°58.159 272.1 0.2 124 14.7
2006-12-18 09:00:54 51°21.668 2°58.159 272.2 0.1 76 14.8
2006-12-18 09:01:00 51°21.668 2°58.16 273.1 0.2 68 14.7
2006-12-18 09:01:04 51°21.668 2°58.16 274.3 0.2 82 14.9
2006-12-18 09:01:09 51°21.668 2°58.161 274.8 0.2 104 14.9
2006-12-18 09:01:14 51°21.668 2°58.161 275.3 0.2 94 14.9
2006-12-18 09:01:19 51°21.668 2°58.161 276.1 0.2 85 14.9
2006-12-18 09:01:24 51°21.668 2°58.162 276.6 0.3 117 14.9
2006-12-18 09:01:29 51°21.668 2°58.162 277.3 0.3 122 14.9
2006-12-18 09:01:34 51°21.668 2°58.163 278.2 0.2 61 14.8
2006-12-18 09:01:40 51°21.668 2°58.163 278.6 0.2 111 14.8
2006-12-18 09:01:45 51°21.668 2°58.164 279.4 0.3 66 14.8
2006-12-18 09:01:49 51°21.668 2°58.164 280.3 0.2 88 14.8
2006-12-18 09:01:54 51°21.668 2°58.164 280.7 0.2 50 14.7
2006-12-18 09:02:00 51°21.668 2°58.165 281.4 0.2 68 14.7
2006-12-18 09:02:05 51°21.668 2°58.166 282 0.2 82 14.6
2006-12-18 09:02:09 51°21.668 2°58.166 282.7 0.2 93 14.7
2006-12-18 09:02:14 51°21.668 2°58.167 283.5 0.3 66 14.7
2006-12-18 09:02:20 51°21.668 2°58.167 284.3 0.3 65 14.9
2006-12-18 09:02:24 51°21.668 2°58.168 285 0.2 109 14.9
2006-12-18 09:02:29 51°21.668 2°58.168 285.7 0.3 49 14.9
2006-12-18 09:02:34 51°21.668 2°58.168 286.6 0.2 109 15
2006-12-18 09:02:40 51°21.669 2°58.169 286.8 0.2 75 15
2006-12-18 09:02:45 51°21.669 2°58.17 287.8 0.2 56 15
2006-12-18 09:02:49 51°21.669 2°58.17 288.6 0.2 61 14.9
2006-12-18 09:02:55 51°21.669 2°58.171 289.2 0.3 53 14.8
2006-12-18 09:02:59 51°21.669 2°58.171 289.7 0.3 74 14.7
2006-12-18 09:03:05 51°21.669 2°58.172 290.2 0.4 74 14.8
2006-12-18 09:03:10 51°21.669 2°58.173 290.5 0.3 88 14.7
2006-12-18 09:03:14 51°21.669 2°58.173 291.1 0.3 84 14.9
2006-12-18 09:03:20 51°21.669 2°58.174 291.7 0.2 71 14.9
2006-12-18 09:03:24 51°21.67 2°58.175 292.2 0.3 57 14.8
2006-12-18 09:03:30 51°21.67 2°58.175 292.7 0.2 100 14.8
2006-12-18 09:03:34 51°21.67 2°58.176 293.2 0.4 70 14.8
2006-12-18 09:03:39 51°21.67 2°58.177 293.9 0.4 70 14.8
2006-12-18 09:03:44 51°21.67 2°58.177 294 0.3 77 14.9
2006-12-18 09:03:50 51°21.671 2°58.178 293.9 0.4 63 14.9
2006-12-18 09:03:54 51°21.671 2°58.179 294.4 0.3 67 14.9
2006-12-18 09:03:59 51°21.671 2°58.179 294.4 0.3 70 14.9
2006-12-18 09:04:04 51°21.671 2°58.18 294.8 0.4 78 14.9
2006-12-18 09:04:09 51°21.671 2°58.181 295.1 0.4 70 14.8
2006-12-18 09:04:15 51°21.671 2°58.182 295.3 0.4 71 14.8
2006-12-18 09:04:20 51°21.672 2°58.183 295.3 0.5 69 14.7
2006-12-18 09:04:25 51°21.672 2°58.184 295.4 0.5 72 14.7
2006-12-18 09:04:29 51°21.672 2°58.184 295 0.4 86 14.8
2006-12-18 09:04:34 51°21.672 2°58.185 295 0.5 73 14.8
2006-12-18 09:04:39 51°21.672 2°58.185 295.7 0.5 70 14.9
2006-12-18 09:04:44 51°21.672 2°58.186 295.5 0.3 81 15
2006-12-18 09:04:49 51°21.672 2°58.187 295.8 0.4 76 14.9
2006-12-18 09:04:54 51°21.672 2°58.188 295.8 0.4 69 15
2006-12-18 09:04:59 51°21.672 2°58.189 295.5 0.4 76 15.1
2006-12-18 09:05:06 51°21.673 2°58.19 295.4 0.4 76 14.9
2006-12-18 09:05:09 51°21.673 2°58.191 295.2 0.4 66 14.9
2006-12-18 09:05:14 51°21.673 2°58.192 295.2 0.4 80 15.1
2006-12-18 09:05:19 51°21.673 2°58.193 294.8 0.4 78 15
2006-12-18 09:05:25 51°21.673 2°58.194 294.6 0.5 73 15
2006-12-18 09:05:30 51°21.674 2°58.195 294.5 0.4 74 15
2006-12-18 09:05:34 51°21.674 2°58.195 294.1 0.4 66 15
2006-12-18 09:05:40 51°21.674 2°58.196 293.9 0.3 76 15
2006-12-18 09:05:45 51°21.674 2°58.197 293.7 0.5 66 14.9
2006-12-18 09:05:50 51°21.674 2°58.198 293.4 0.4 78 14.7
2006-12-18 09:05:54 51°21.675 2°58.199 293.3 0.5 73 14.7
2006-12-18 09:05:59 51°21.675 2°58.2 293.3 0.5 67 14.9
2006-12-18 09:06:04 51°21.675 2°58.201 293.2 0.4 86 15
2006-12-18 09:06:09 51°21.675 2°58.202 293.2 0.6 54 14.9
2006-12-18 09:06:14 51°21.675 2°58.203 292.7 0.3 93 14.9
2006-12-18 09:06:20 51°21.676 2°58.205 292.2 0.5 71 14.9
2006-12-18 09:06:24 51°21.676 2°58.205 292.5 0.5 76 14.9
2006-12-18 09:06:29 51°21.676 2°58.206 291.9 0.5 76 14.8
2006-12-18 09:06:34 51°21.676 2°58.207 291.6 0.5 75 14.8
2006-12-18 09:06:40 51°21.676 2°58.208 291.2 0.5 83 14.9
2006-12-18 09:06:45 51°21.676 2°58.209 291.2 0.5 74 14.9
2006-12-18 09:06:49 51°21.676 2°58.21 290.8 0.4 85 14.8
2006-12-18 09:06:54 51°21.676 2°58.211 290.7 0.6 64 14.8
2006-12-18 09:06:59 51°21.676 2°58.212 290.7 0.4 92 15
2006-12-18 09:07:04 51°21.677 2°58.213 290.3 0.5 69 14.9
2006-12-18 09:07:11 51°21.678 2°58.215 290.9 0.5 61 15
2006-12-18 09:07:14 51°21.678 2°58.215 291 0.5 62 15
2006-12-18 09:07:19 51°21.678 2°58.216 291 0.5 71 15
2006-12-18 09:07:25 51°21.678 2°58.218 291.2 0.5 77 15
2006-12-18 09:07:30 51°21.678 2°58.219 291.7 0.7 57 14.9
2006-12-18 09:07:34 51°21.678 2°58.219 291.8 0.4 78 15
2006-12-18 09:07:39 51°21.679 2°58.221 291.8 0.6 60 15.1
2006-12-18 09:07:44 51°21.679 2°58.221 292.2 0.5 67 15
2006-12-18 09:07:50 51°21.679 2°58.223 292.1 0.5 74 14.9
2006-12-18 09:07:54 51°21.68 2°58.224 292.1 0.6 64 14.8
2006-12-18 09:08:00 51°21.68 2°58.225 292.3 0.5 60 14.9
2006-12-18 09:08:04 51°21.68 2°58.226 292.2 0.5 73 14.8
2006-12-18 09:08:10 51°21.68 2°58.227 292.3 0.6 64 14.8
2006-12-18 09:08:14 51°21.681 2°58.228 292.2 0.5 72 14.9
2006-12-18 09:08:19 51°21.681 2°58.229 292.4 0.6 58 14.9
2006-12-18 09:08:24 51°21.681 2°58.23 292.3 0.3 68 14.9
2006-12-18 09:08:29 51°21.681 2°58.23 292.5 0.5 29 14.9
2006-12-18 09:08:34 51°21.682 2°58.23 292.8 0.2 347 15
2006-12-18 09:08:40 51°21.683 2°58.23 292.6 0.5 349 14.9
2006-12-18 09:08:44 51°21.683 2°58.229 292.9 0.5 314 14.9
2006-12-18 09:08:49 51°21.684 2°58.228 292.6 0.9 316 14.9
2006-12-18 09:08:54 51°21.684 2°58.226 291.9 1 292 14.9
2006-12-18 09:09:00 51°21.686 2°58.223 291.4 1.3 303 14.9
2006-12-18 09:09:05 51°21.687 2°58.221 290.9 1.4 296 14.9
2006-12-18 09:09:09 51°21.687 2°58.218 289.7 1.6 295 14.9
2006-12-18 09:09:15 51°21.688 2°58.214 288.3 1.8 291 14.8
2006-12-18 09:09:20 51°21.689 2°58.209 286.6 1.9 287 14.9
2006-12-18 09:09:25 51°21.69 2°58.205 284.7 2.1 285 14.9
2006-12-18 09:09:30 51°21.69 2°58.2 282.7 2.3 282 15
2006-12-18 09:09:34 51°21.691 2°58.196 280.4 2.3 277 15.2
2006-12-18 09:09:39 51°21.691 2°58.19 277.9 2.5 276 15.1
2006-12-18 09:09:45 51°21.692 2°58.184 275.1 2.4 275 14.9
2006-12-18 09:09:49 51°21.692 2°58.18 273.1 2.3 271 15.1
2006-12-18 09:09:54 51°21.691 2°58.175 271.4 2.2 267 15.1
2006-12-18 09:09:59 51°21.691 2°58.17 270.3 2.1 267 15
2006-12-18 09:10:05 51°21.691 2°58.165 269.5 2 268 15
2006-12-18 09:10:10 51°21.691 2°58.16 268.8 2 266 15.1
2006-12-18 09:10:14 51°21.691 2°58.157 268.3 1.8 268 15
2006-12-18 09:10:20 51°21.691 2°58.152 268.1 1.7 267 15.1
2006-12-18 09:10:24 51°21.691 2°58.15 267.6 1.6 267 15
2006-12-18 09:10:30 51°21.691 2°58.146 267.2 1.5 268 15
2006-12-18 09:10:34 51°21.69 2°58.143 267.4 1.3 275 15.1
2006-12-18 09:10:39 51°21.69 2°58.141 267.8 1.1 268 15.1
2006-12-18 09:10:44 51°21.691 2°58.139 269 1 274 15
2006-12-18 09:10:50 51°21.691 2°58.137 271 0.8 278 15.1
2006-12-18 09:10:54 51°21.691 2°58.136 273.6 0.6 282 15
2006-12-18 09:10:59 51°21.691 2°58.135 275.5 0.5 285 15
2006-12-18 09:11:04 51°21.692 2°58.134 278.4 0.5 305 15.1
2006-12-18 09:11:09 51°21.692 2°58.133 280.6 0.5 309 15.1
2006-12-18 09:11:14 51°21.692 2°58.131 283.4 0.5 308 15
2006-12-18 09:11:20 51°21.692 2°58.131 284.5 0.4 293 15
2006-12-18 09:11:25 51°21.693 2°58.13 286.4 0.5 308 15
2006-12-18 09:11:29 51°21.693 2°58.129 288.8 0.6 329 15.1
2006-12-18 09:11:34 51°21.694 2°58.128 289.6 0.5 309 15.1
2006-12-18 09:11:40 51°21.695 2°58.128 290.9 0.5 315 15.3
2006-12-18 09:11:45 51°21.695 2°58.127 292.5 0.6 331 15.2
2006-12-18 09:11:50 51°21.696 2°58.127 293.8 0.5 339 15.1
2006-12-18 09:11:54 51°21.696 2°58.126 294.6 0.5 337 15.1
2006-12-18 09:12:00 51°21.697 2°58.126 295.5 0.5 336 15.2
2006-12-18 09:12:04 51°21.697 2°58.125 296.4 0.6 335 15.1
2006-12-18 09:12:09 51°21.698 2°58.125 297.4 0.5 335 15.1
2006-12-18 09:12:14 51°21.699 2°58.125 298.5 0.5 352 15.1
2006-12-18 09:12:20 51°21.7 2°58.124 299.4 0.5 348 15.2
2006-12-18 09:12:26 51°21.701 2°58.124 299.9 0.6 349 15.2
2006-12-18 09:12:30 51°21.701 2°58.124 300.6 0.5 350 15.2
2006-12-18 09:12:35 51°21.702 2°58.124 301.2 0.5 347 15.2
2006-12-18 09:12:41 51°21.703 2°58.124 301.9 0.5 352 15.2
2006-12-18 09:12:45 51°21.703 2°58.124 302.5 0.6 -999 15.1
2006-12-18 09:12:51 51°21.704 2°58.124 302.9 0.6 358 15.3
2006-12-18 09:12:55 51°21.705 2°58.124 303.2 0.5 353 15.3
2006-12-18 09:13:01 51°21.706 2°58.124 303.8 0.7 6 15.1
2006-12-18 09:13:06 51°21.707 2°58.124 304.1 0.6 -999 15.1
2006-12-18 09:13:09 51°21.707 2°58.124 304.3 0.5 7 15.1